Home   Weather   Lübeck   Past weeks
Flag for Germany

Past Weather in Lübeck, Schleswig-Holstein, Germany — Yesterday and Last 2 Weeks

Now
66 °F

Sunny.


Feels Like: 66 °F
Forecast: 78 / 56 °F
Wind: 1 mph from North

Location: Luebeck-Blankensee

Current Time: Jul 19, 2019 at 11:39:24 pm

Latest Report: Jul 19, 2019 at 8:50 pm


Visibility: 10 mi

Pressure: 29.95 "Hg

Humidity: 52%

Dew Point: 48 °F

Location of LübeckLocation

Past Weather in Lübeck — Graph

°F

Lübeck Temperature Yesterday

Maximum temperature yesterday: 77 °F (at 3:50 pm)
Minimum temperature yesterday: 52 °F (at 6:50 am)
Average temperature yesterday: 71 °F

High & Low Weather Summary for the Past Weeks

 TemperatureHumidityPressure
High77 °F (Jul 18, 3:50 pm)100% (Jul 12, 6:50 am)30.07 "Hg (Jul 12, 6:50 am)
Low52 °F (Jul 8, 6:20 am)36% (Jul 19, 4:50 pm)29.71 "Hg (Jul 6, 1:20 pm)
Average63 °F69%29.93 "Hg
* Reported Jul 4 8:20 pm — Jul 19 8:50 pm, Lübeck. Weather by CustomWeather, © 2019

Note: Actual official high and low records may vary slightly from our data, if they occured in-between our weather recording intervals... More about our weather records

Advertising

Lübeck Weather History for the Previous 24 Hours

Scroll right to see more
 ConditionsComfort  
Time TempWeatherWind HumidityBarometerVisibility
8:50 pm
Fri, Jul 19
66 °FSunny.1 mph52%29.95 "Hg10 mi
8:20 pm70 °FSunny.2 mph43%29.92 "Hg10 mi
7:50 pm72 °FPassing clouds.3 mph41%29.92 "HgN/A
7:20 pm73 °FPassing clouds.6 mph36%29.92 "HgN/A
6:50 pm73 °FPassing clouds.6 mph38%29.92 "HgN/A
6:20 pm73 °FPassing clouds.7 mph38%29.92 "HgN/A
5:50 pm75 °FPassing clouds.8 mph36%29.92 "HgN/A
5:20 pm75 °FPassing clouds.9 mph36%29.92 "HgN/A
4:50 pm75 °FPassing clouds.9 mph36%29.92 "HgN/A
4:20 pm75 °FPassing clouds.12 mph44%29.92 "HgN/A
3:50 pm73 °FPassing clouds.10 mph50%29.92 "HgN/A
3:20 pm73 °FScattered clouds.8 mph50%29.92 "HgN/A
2:50 pm72 °FScattered clouds.9 mph57%29.92 "HgN/A
2:20 pm73 °FPassing clouds.7 mph61%29.92 "HgN/A
1:50 pm70 °FScattered clouds.7 mph64%29.92 "HgN/A
1:20 pm72 °FScattered clouds.7 mph61%29.89 "HgN/A
12:50 pm70 °FScattered clouds.8 mph69%29.89 "HgN/A
12:20 pm68 °FScattered clouds.14 mph73%29.89 "HgN/A
11:50 am70 °FPartly sunny.15 mph69%29.89 "HgN/A
11:20 am70 °FPartly sunny.7 mph69%29.89 "HgN/A
10:50 am70 °FPartly sunny.9 mph69%29.89 "HgN/A
10:20 am70 °FPartly sunny.8 mph69%29.89 "HgN/A
9:50 am70 °FPartly sunny.8 mph73%29.89 "HgN/A
9:20 am68 °FPartly sunny.7 mph73%29.89 "HgN/A
8:50 am66 °FPassing clouds.8 mph78%29.86 "HgN/A
8:20 am66 °FPassing clouds.6 mph78%29.86 "HgN/A
7:50 am64 °FSunny.6 mph83%29.86 "Hg10 mi
7:20 am63 °FSunny.6 mph83%29.86 "Hg10 mi
6:50 am61 °FSunny.6 mph83%29.86 "Hg10 mi
Weather by CustomWeather, © 2019

See weather overview